User: anonymous   Login
Location: Trois-Rivi�res
(46.3500°N, 72.5500°W)
Time: 10:56:39
(UTC-05:00)
Language:

Cosmos 1975 - Orbit

View from above orbital plane
View from above orbital plane
View from above satellite
View from above satellite

Ground track
Ground track

The orbit data is extracted from the following two-line orbital elements,

1 19573U 88093A   14354.84552624  .00006518  00000-0  50022-3 0  3925
2 19573 082.5217 144.0501 0015827 148.0106 212.2084 15.01536674423196
Epoch (UTC): 20 December 2014 20:17:33
Eccentricity: 0.0015827
inclination: 82.5217°
perigee height: 551 km
apogee height: 573 km
right ascension of ascending node: 144.0501°
argument of perigee: 148.0106°
revolutions per day: 15.01536674
mean anomaly at epoch: 212.2084°
orbit number at epoch: 42319

The dashed part of the orbit path shows where the satellite is in the earth's shadow,  

DLR